Weather in Silute

Lithuania     55°20′57″N   21°28′06″E
temp.,
°C
wind,
m/s
gust,
m/s
humid.,
%
clouds,
%
prec.,
mm/h
press.,
hPa
HPBL,
m
28 july, wed
wed2800:00+18wsw22958 0.0 101145
03:00+18wsw369514 0.0 1011131
06:00+17sw359615 0.0 101190
09:00+22sw347492 0.0 1011353
12:00+26wsw345292 0.0 10111083
15:00+27w36445 0.0 10101689
18:00+26wnw344984 0.0 1009549
21:00+18nw479324 1.4 1010231
29 july, thu
thu2900:00+17s389796 0.6 1010217
03:00+18sw259840 0.7 1009177
06:00+18w36944 0.0 1008152
09:00+20wsw47850 0.1 1008580
12:00+22wsw58735 0.7 1008954
15:00+23w585896 1.2 10081063
18:00+21wnw476678 0.2 1008761
21:00+18wnw49828 0.8 1008329
30 july, fri
fri3000:00+16wsw368515 0.1 1008175
03:00+15sw4108829 0.4 1008252
06:00+15ssw410884 0.1 1007355
09:00+19sw714645 0.3 10071586
12:00+21wsw81347100 0.0 10061862
15:00+22w813411 0.0 10062091
18:00+21w7125015 0.0 10051633
21:00+19wsw714621 0.0 10041173
31 july, sat
sat3100:00+19wsw813646 0.0 1004972
03:00+19wsw711670 0.0 1005891
06:00+17wsw377293 0.0 1004261
09:00+19ssw4764100 0.0 1005431
12:00+24ssw4645100 0.0 1004950
15:00+26ssw7944100 0.0 10022245
18:00+20w257520 0.5 1002278
21:00+17w38810 1.0 1003304
1 august, sun
sun100:00+17wsw510775 0.1 1004526
03:00+16sw51189100 0.9 1004429
06:00+17sw7128794 1.2 1004677
09:00+18w6118394 2.7 1005689
12:00+21w696494 0.5 10071408
15:00+22w685788 0.7 10071411
18:00+21wnw4660100 0.0 1007931
21:00+17w2380100 0.1 100763